Time,TemperatureF,DewpointF,PressureIn,WindDirection,WindDirectionDegrees,WindSpeedMPH,WindSpeedGustMPH,Humidity,HourlyPrecipIn,Conditions,Clouds,dailyrainin,SoftwareType,DateUTC
2013-01-27 00:00:00,44.7,42.2,29.98,NNW,338,0.0,6.0,91,0.10,,CLR,0.00,VWS V13.01,2013-01-27 08:00:00,
2013-01-27 00:15:00,43.9,41.5,29.98,NNW,338,2.0,6.0,91,0.06,,CLR,0.00,VWS V13.01,2013-01-27 08:15:00,
2013-01-27 00:30:00,43.1,40.7,29.98,NNW,338,2.0,7.0,91,0.02,,CLR,0.00,VWS V13.01,2013-01-27 08:30:00,
2013-01-27 00:45:00,42.5,40.1,29.98,NW,315,2.0,6.0,91,0.00,,CLR,0.00,VWS V13.01,2013-01-27 08:45:00,
2013-01-27 01:00:00,42.1,39.7,29.99,NW,315,1.0,5.0,91,0.00,,CLR,0.00,VWS V13.01,2013-01-27 09:00:00,
2013-01-27 01:15:00,41.7,39.5,29.99,NW,315,0.0,1.0,92,0.00,,CLR,0.00,VWS V13.01,2013-01-27 09:15:00,
2013-01-27 01:30:00,41.7,39.8,29.99,NW,315,1.0,5.0,93,0.00,,CLR,0.00,VWS V13.01,2013-01-27 09:30:00,
2013-01-27 01:45:00,41.6,39.7,29.99,NW,315,0.0,2.0,93,0.00,,CLR,0.00,VWS V13.01,2013-01-27 09:45:00,
2013-01-27 02:00:00,41.3,39.4,29.99,NW,315,0.0,0.0,93,0.00,,CLR,0.00,VWS V13.01,2013-01-27 10:00:00,
2013-01-27 02:15:00,40.9,39.0,30.00,NW,315,0.0,0.0,93,0.00,,CLR,0.00,VWS V13.01,2013-01-27 10:15:00,
2013-01-27 02:30:00,40.5,38.6,30.00,NW,315,0.0,0.0,93,0.00,,CLR,0.00,VWS V13.01,2013-01-27 10:30:00,
2013-01-27 02:45:00,40.1,38.2,30.01,NW,315,0.0,0.0,93,0.00,,CLR,0.00,VWS V13.01,2013-01-27 10:45:00,
2013-01-27 03:00:00,39.6,37.8,30.00,NW,315,0.0,0.0,93,0.00,,CLR,0.00,VWS V13.01,2013-01-27 11:00:00,
2013-01-27 03:15:00,39.3,37.7,30.00,NW,315,0.0,0.0,94,0.00,,CLR,0.00,VWS V13.01,2013-01-27 11:15:00,
2013-01-27 03:30:00,39.2,37.6,30.00,NW,315,0.0,0.0,94,0.00,,CLR,0.00,VWS V13.01,2013-01-27 11:30:00,
2013-01-27 03:45:00,39.1,37.5,30.01,NW,315,0.0,0.0,94,0.00,,CLR,0.00,VWS V13.01,2013-01-27 11:45:00,
2013-01-27 04:00:00,39.1,37.5,30.01,NW,315,0.0,0.0,94,0.00,,CLR,0.00,VWS V13.01,2013-01-27 12:00:00,
2013-01-27 04:15:00,38.8,37.2,30.01,NW,315,0.0,0.0,94,0.00,,CLR,0.00,VWS V13.01,2013-01-27 12:15:00,
2013-01-27 04:30:00,38.3,36.7,30.01,NW,315,0.0,0.0,94,0.00,,CLR,0.00,VWS V13.01,2013-01-27 12:30:00,
2013-01-27 04:45:00,37.8,36.2,30.01,NW,315,0.0,0.0,94,0.00,,CLR,0.00,VWS V13.01,2013-01-27 12:45:00,
2013-01-27 05:00:00,37.7,36.1,30.02,NW,315,0.0,0.0,94,0.00,,CLR,0.00,VWS V13.01,2013-01-27 13:00:00,
2013-01-27 05:15:00,37.7,36.1,30.02,NW,315,0.0,0.0,94,0.00,,CLR,0.00,VWS V13.01,2013-01-27 13:15:00,
2013-01-27 05:30:00,37.3,35.7,30.02,NW,315,0.0,0.0,94,0.00,,CLR,0.00,VWS V13.01,2013-01-27 13:30:00,
2013-01-27 05:45:00,37.0,35.4,30.02,NW,315,0.0,0.0,94,0.00,,CLR,0.00,VWS V13.01,2013-01-27 13:45:00,
2013-01-27 06:00:00,36.7,35.1,30.02,NW,315,0.0,0.0,94,0.00,,CLR,0.00,VWS V13.01,2013-01-27 14:00:00,
2013-01-27 06:15:00,36.4,34.8,30.03,NW,315,0.0,0.0,94,0.00,,CLR,0.00,VWS V13.01,2013-01-27 14:15:00,
2013-01-27 06:30:00,36.4,35.1,30.04,NW,315,0.0,0.0,95,0.00,,CLR,0.00,VWS V13.01,2013-01-27 14:30:00,
2013-01-27 06:45:00,36.3,35.0,30.05,NW,315,0.0,0.0,95,0.01,,CLR,0.01,VWS V13.01,2013-01-27 14:45:00,
2013-01-27 07:02:00,35.9,34.6,30.05,NW,324,0.0,0.0,95,0.00,,CLR,0.01,VWS V13.01,2013-01-27 15:02:00,
2013-01-27 07:08:00,35.7,34.2,30.06,NW,324,0.0,0.0,94,0.00,,CLR,0.01,VWS V13.01,2013-01-27 15:08:00,
2013-01-27 07:14:00,35.5,34.0,30.06,NW,324,0.0,0.0,94,0.00,,CLR,0.01,VWS V13.01,2013-01-27 15:14:00,
2013-01-27 07:19:00,35.4,34.1,30.05,NW,324,0.0,0.0,95,0.00,,CLR,0.01,VWS V13.01,2013-01-27 15:19:00,
2013-01-27 07:25:00,35.3,33.8,30.05,NW,324,0.0,0.0,94,0.00,,CLR,0.01,VWS V13.01,2013-01-27 15:25:00,
2013-01-27 07:31:00,35.1,33.5,30.05,NW,324,0.0,0.0,94,0.00,,CLR,0.01,VWS V13.01,2013-01-27 15:31:00,
2013-01-27 07:37:00,35.1,33.8,30.06,NW,324,0.0,0.0,95,0.00,,CLR,0.01,VWS V13.01,2013-01-27 15:37:00,
2013-01-27 07:43:00,35.4,34.1,30.06,NW,324,0.0,0.0,95,0.00,,CLR,0.01,VWS V13.01,2013-01-27 15:43:00,
2013-01-27 07:49:00,35.8,34.5,30.07,NW,324,0.0,0.0,95,0.00,,CLR,0.01,VWS V13.01,2013-01-27 15:49:00,
2013-01-27 07:55:00,36.2,35.2,30.07,NW,324,0.0,0.0,96,0.00,,CLR,0.01,VWS V13.01,2013-01-27 15:55:00,
2013-01-27 08:01:00,36.7,35.7,30.07,NW,324,2.0,6.0,96,0.00,,CLR,0.01,VWS V13.01,2013-01-27 16:01:00,
2013-01-27 08:07:00,37.3,36.3,30.07,NW,324,4.0,7.0,96,0.00,,CLR,0.01,VWS V13.01,2013-01-27 16:07:00,
2013-01-27 08:13:00,37.8,36.8,30.07,NW,324,0.0,7.0,96,0.00,,CLR,0.01,VWS V13.01,2013-01-27 16:13:00,
2013-01-27 08:19:00,38.3,37.3,30.08,NW,324,0.0,7.0,96,0.00,,CLR,0.01,VWS V13.01,2013-01-27 16:19:00,
2013-01-27 08:26:00,38.9,37.9,30.08,NW,324,0.0,4.0,96,0.00,,CLR,0.01,VWS V13.01,2013-01-27 16:26:00,
2013-01-27 08:32:00,39.3,38.3,30.08,NW,324,0.0,5.0,96,0.00,,CLR,0.01,VWS V13.01,2013-01-27 16:32:00,
2013-01-27 08:38:00,39.7,38.7,30.09,NW,324,1.0,4.0,96,0.00,,CLR,0.01,VWS V13.01,2013-01-27 16:38:00,
2013-01-27 08:44:00,40.2,39.2,30.09,NW,324,0.0,4.0,96,0.00,,CLR,0.01,VWS V13.01,2013-01-27 16:44:00,
2013-01-27 08:49:00,40.8,39.8,30.09,NW,324,0.0,4.0,96,0.00,,CLR,0.01,VWS V13.01,2013-01-27 16:49:00,
2013-01-27 08:56:00,41.6,40.5,30.09,NW,324,0.0,0.0,96,0.00,,CLR,0.01,VWS V13.01,2013-01-27 16:56:00,
2013-01-27 09:02:00,42.3,41.2,30.09,NW,324,0.0,4.0,96,0.00,,CLR,0.01,VWS V13.01,2013-01-27 17:02:00,
2013-01-27 09:08:00,42.8,41.5,30.09,NW,324,4.0,6.0,95,0.00,,CLR,0.01,VWS V13.01,2013-01-27 17:08:00,
2013-01-27 09:14:00,43.3,42.0,30.09,NW,324,0.0,6.0,95,0.00,,CLR,0.01,VWS V13.01,2013-01-27 17:14:00,
2013-01-27 09:19:00,43.9,42.6,30.09,NW,324,0.0,6.0,95,0.00,,CLR,0.01,VWS V13.01,2013-01-27 17:19:00,
2013-01-27 09:25:00,44.5,42.9,30.09,NW,324,0.0,0.0,94,0.00,,CLR,0.01,VWS V13.01,2013-01-27 17:25:00,
2013-01-27 09:31:00,45.2,43.6,30.09,NW,315,0.0,0.0,94,0.00,,CLR,0.01,VWS V13.01,2013-01-27 17:31:00,
2013-01-27 09:37:00,46.0,44.1,30.10,NW,315,5.0,7.0,93,0.00,,CLR,0.01,VWS V13.01,2013-01-27 17:37:00,
2013-01-27 09:43:00,46.5,43.7,30.10,NW,313,6.0,8.0,90,0.00,,CLR,0.01,VWS V13.01,2013-01-27 17:43:00,
2013-01-27 09:49:00,46.9,43.5,30.10,NW,306,4.0,8.0,88,0.00,,CLR,0.01,VWS V13.01,2013-01-27 17:49:00,
2013-01-27 09:55:00,47.3,43.0,30.10,NW,305,6.0,9.0,85,0.00,,CLR,0.01,VWS V13.01,2013-01-27 17:55:00,
2013-01-27 10:01:00,47.8,42.9,30.11,NW,306,2.0,9.0,83,0.00,,CLR,0.01,VWS V13.01,2013-01-27 18:01:00,
2013-01-27 10:07:00,48.5,42.3,30.11,NNW,334,5.0,8.0,79,0.00,,CLR,0.01,VWS V13.01,2013-01-27 18:07:00,
2013-01-27 10:13:00,49.3,42.1,30.11,NW,325,0.0,8.0,76,0.00,,CLR,0.01,VWS V13.01,2013-01-27 18:13:00,
2013-01-27 10:19:00,50.0,41.7,30.12,NW,323,6.0,9.0,73,0.00,,CLR,0.01,VWS V13.01,2013-01-27 18:19:00,
2013-01-27 10:25:00,50.6,41.2,30.12,NW,318,7.0,10.0,70,0.00,,CLR,0.01,VWS V13.01,2013-01-27 18:25:00,
2013-01-27 10:31:00,51.1,40.5,30.12,North,360,6.0,12.0,67,0.00,,CLR,0.01,VWS V13.01,2013-01-27 18:31:00,
2013-01-27 10:37:00,51.8,40.8,30.12,NNW,339,5.0,11.0,66,0.00,,CLR,0.01,VWS V13.01,2013-01-27 18:37:00,
2013-01-27 10:43:00,52.2,39.2,30.12,NW,321,6.0,16.0,61,0.00,,CLR,0.01,VWS V13.01,2013-01-27 18:43:00,
2013-01-27 10:49:00,52.4,38.1,30.12,NNW,340,7.0,16.0,58,0.00,,CLR,0.01,VWS V13.01,2013-01-27 18:49:00,
2013-01-27 10:55:00,52.5,38.2,30.12,NW,308,7.0,14.0,58,0.00,,CLR,0.01,VWS V13.01,2013-01-27 18:55:00,
2013-01-27 11:01:00,52.7,38.3,30.12,NW,310,17.0,19.0,58,0.00,,CLR,0.01,VWS V13.01,2013-01-27 19:01:00,
2013-01-27 11:07:00,52.8,37.1,30.11,NW,323,17.0,17.0,55,0.00,,CLR,0.01,VWS V13.01,2013-01-27 19:07:00,
2013-01-27 11:13:00,52.8,37.1,30.11,NNW,327,21.0,21.0,55,0.00,,CLR,0.01,VWS V13.01,2013-01-27 19:13:00,
2013-01-27 11:19:00,52.8,36.6,30.11,NW,326,12.0,21.0,54,0.00,,CLR,0.01,VWS V13.01,2013-01-27 19:19:00,
2013-01-27 11:25:00,53.0,36.8,30.11,NNW,334,14.0,21.0,54,0.00,,CLR,0.01,VWS V13.01,2013-01-27 19:25:00,
2013-01-27 11:31:00,53.2,36.5,30.11,NNW,329,9.0,23.0,53,0.00,,CLR,0.01,VWS V13.01,2013-01-27 19:31:00,
2013-01-27 11:37:00,53.4,38.6,30.11,NNW,327,14.0,16.0,57,0.00,,CLR,0.01,VWS V13.01,2013-01-27 19:37:00,
2013-01-27 11:43:00,53.7,38.8,30.11,NNW,329,4.0,16.0,57,0.00,,CLR,0.01,VWS V13.01,2013-01-27 19:43:00,
2013-01-27 11:49:00,54.2,38.4,30.11,NNW,340,9.0,16.0,55,0.00,,CLR,0.01,VWS V13.01,2013-01-27 19:49:00,
2013-01-27 11:56:00,54.4,36.2,30.10,NW,319,14.0,21.0,50,0.00,,CLR,0.01,VWS V13.01,2013-01-27 19:56:00,
2013-01-27 12:02:00,54.2,36.0,30.10,NNW,327,11.0,22.0,50,0.00,,CLR,0.01,VWS V13.01,2013-01-27 20:02:00,
2013-01-27 12:08:00,54.2,37.0,30.10,North,355,15.0,18.0,52,0.00,,CLR,0.01,VWS V13.01,2013-01-27 20:08:00,
2013-01-27 12:14:00,54.6,37.3,30.10,NNW,340,11.0,18.0,52,0.00,,CLR,0.01,VWS V13.01,2013-01-27 20:14:00,
2013-01-27 12:19:00,54.8,37.5,30.10,NNW,342,14.0,18.0,52,0.00,,CLR,0.01,VWS V13.01,2013-01-27 20:19:00,
2013-01-27 12:26:00,55.1,38.8,30.09,North,349,9.0,18.0,54,0.00,,CLR,0.01,VWS V13.01,2013-01-27 20:26:00,
2013-01-27 12:32:00,55.4,37.6,30.10,North,360,5.0,19.0,51,0.00,,CLR,0.01,VWS V13.01,2013-01-27 20:32:00,
2013-01-27 12:38:00,55.9,38.0,30.10,North,360,6.0,18.0,51,0.00,,CLR,0.01,VWS V13.01,2013-01-27 20:38:00,
2013-01-27 12:44:00,56.2,37.3,30.09,North,10,16.0,19.0,49,0.00,,CLR,0.01,VWS V13.01,2013-01-27 20:44:00,
2013-01-27 12:49:00,56.4,38.0,30.09,North,9,4.0,19.0,50,0.00,,CLR,0.01,VWS V13.01,2013-01-27 20:49:00,
2013-01-27 12:54:00,56.6,38.7,30.09,NNW,334,10.0,19.0,51,0.00,,CLR,0.01,VWS V13.01,2013-01-27 20:54:00,
2013-01-27 13:00:00,56.7,38.3,30.09,NNW,341,13.0,19.0,50,0.00,,CLR,0.01,VWS V13.01,2013-01-27 21:00:00,
2013-01-27 13:06:00,56.8,39.4,30.09,North,5,8.0,11.0,52,0.00,,CLR,0.01,VWS V13.01,2013-01-27 21:06:00,
2013-01-27 13:12:00,57.2,38.8,30.09,NNW,343,7.0,20.0,50,0.00,,CLR,0.01,VWS V13.01,2013-01-27 21:12:00,
2013-01-27 13:19:00,57.5,38.5,30.09,NW,319,9.0,20.0,49,0.00,,CLR,0.01,VWS V13.01,2013-01-27 21:19:00,
2013-01-27 13:25:00,57.5,39.5,30.09,North,360,9.0,15.0,51,0.00,,CLR,0.01,VWS V13.01,2013-01-27 21:25:00,
2013-01-27 13:31:00,57.7,39.2,30.09,NNW,329,9.0,15.0,50,0.00,,CLR,0.01,VWS V13.01,2013-01-27 21:31:00,
2013-01-27 13:37:00,57.7,38.7,30.08,NNW,331,8.0,15.0,49,0.00,,CLR,0.01,VWS V13.01,2013-01-27 21:37:00,
2013-01-27 13:43:00,57.6,38.1,30.08,North,350,12.0,18.0,48,0.00,,CLR,0.01,VWS V13.01,2013-01-27 21:43:00,
2013-01-27 13:49:00,57.6,39.1,30.08,North,349,16.0,19.0,50,0.00,,CLR,0.01,VWS V13.01,2013-01-27 21:49:00,
2013-01-27 13:55:00,57.7,38.2,30.08,NNW,330,10.0,18.0,48,0.00,,CLR,0.01,VWS V13.01,2013-01-27 21:55:00,
2013-01-27 14:01:00,57.5,36.3,30.08,NNW,342,15.0,18.0,45,0.00,,CLR,0.01,VWS V13.01,2013-01-27 22:01:00,
2013-01-27 14:07:00,57.5,36.9,30.08,NNW,336,8.0,15.0,46,0.00,,CLR,0.01,VWS V13.01,2013-01-27 22:07:00,
2013-01-27 14:13:00,57.7,36.5,30.08,NNW,329,15.0,16.0,45,0.00,,CLR,0.01,VWS V13.01,2013-01-27 22:13:00,
2013-01-27 14:19:00,57.7,35.4,30.08,NNE,13,12.0,16.0,43,0.00,,CLR,0.01,VWS V13.01,2013-01-27 22:19:00,
2013-01-27 14:25:00,57.7,36.0,30.08,North,350,4.0,16.0,44,0.00,,CLR,0.01,VWS V13.01,2013-01-27 22:25:00,
2013-01-27 14:31:00,58.1,35.7,30.08,NNW,348,7.0,16.0,43,0.00,,CLR,0.01,VWS V13.01,2013-01-27 22:31:00,
2013-01-27 14:37:00,58.2,37.0,30.08,North,355,8.0,11.0,45,0.00,,CLR,0.01,VWS V13.01,2013-01-27 22:37:00,
2013-01-27 14:43:00,58.6,37.9,30.08,NNW,342,9.0,11.0,46,0.00,,CLR,0.01,VWS V13.01,2013-01-27 22:43:00,
2013-01-27 14:49:00,58.8,37.0,30.07,NNE,18,11.0,15.0,44,0.00,,CLR,0.01,VWS V13.01,2013-01-27 22:49:00,
2013-01-27 14:55:00,58.8,37.0,30.07,NNW,345,9.0,15.0,44,0.00,,CLR,0.01,VWS V13.01,2013-01-27 22:55:00,
2013-01-27 15:01:00,58.8,37.0,30.07,NNE,15,4.0,15.0,44,0.00,,CLR,0.01,VWS V13.01,2013-01-27 23:01:00,
2013-01-27 15:07:00,58.6,36.8,30.07,NNW,340,5.0,13.0,44,0.00,,CLR,0.01,VWS V13.01,2013-01-27 23:07:00,
2013-01-27 15:13:00,58.5,35.5,30.06,NNW,327,6.0,15.0,42,0.00,,CLR,0.01,VWS V13.01,2013-01-27 23:13:00,
2013-01-27 15:19:00,58.3,35.9,30.07,North,360,9.0,17.0,43,0.00,,CLR,0.01,VWS V13.01,2013-01-27 23:19:00,
2013-01-27 15:25:00,57.9,35.6,30.07,NNE,22,9.0,14.0,43,0.00,,CLR,0.01,VWS V13.01,2013-01-27 23:25:00,
2013-01-27 15:31:00,57.4,34.5,30.07,North,355,6.0,15.0,42,0.00,,CLR,0.01,VWS V13.01,2013-01-27 23:31:00,
2013-01-27 15:37:00,56.9,35.8,30.06,North,10,6.0,11.0,45,0.00,,CLR,0.01,VWS V13.01,2013-01-27 23:37:00,
2013-01-27 15:44:00,56.6,35.0,30.06,NNW,345,8.0,12.0,44,0.00,,CLR,0.01,VWS V13.01,2013-01-27 23:44:00,
2013-01-27 15:49:00,56.4,34.8,30.06,North,355,6.0,12.0,44,0.00,,CLR,0.01,VWS V13.01,2013-01-27 23:49:00,
2013-01-27 15:56:00,56.2,35.7,30.06,NNW,346,6.0,12.0,46,0.00,,CLR,0.01,VWS V13.01,2013-01-27 23:56:00,
2013-01-27 16:02:00,56.1,35.6,30.06,North,349,7.0,12.0,46,0.00,,CLR,0.01,VWS V13.01,2013-01-28 00:02:00,
2013-01-27 16:08:00,55.8,34.8,30.06,NNW,338,6.0,16.0,45,0.00,,CLR,0.01,VWS V13.01,2013-01-28 00:08:00,
2013-01-27 16:14:00,55.6,35.7,30.06,North,349,6.0,16.0,47,0.00,,CLR,0.01,VWS V13.01,2013-01-28 00:14:00,
2013-01-27 16:19:00,55.3,35.4,30.06,NNW,348,4.0,16.0,47,0.00,,CLR,0.01,VWS V13.01,2013-01-28 00:19:00,
2013-01-27 16:24:00,55.2,35.9,30.06,North,349,8.0,11.0,48,0.00,,CLR,0.01,VWS V13.01,2013-01-28 00:24:00,
2013-01-27 16:30:00,54.9,35.1,30.06,NNW,338,9.0,11.0,47,0.00,,CLR,0.01,VWS V13.01,2013-01-28 00:30:00,
2013-01-27 16:36:00,54.6,35.3,30.06,North,355,6.0,10.0,48,0.00,,CLR,0.01,VWS V13.01,2013-01-28 00:36:00,
2013-01-27 16:42:00,54.3,35.6,30.06,NNW,346,7.0,10.0,49,0.00,,CLR,0.01,VWS V13.01,2013-01-28 00:42:00,
2013-01-27 16:48:00,54.0,35.8,30.06,North,349,7.0,10.0,50,0.00,,CLR,0.01,VWS V13.01,2013-01-28 00:48:00,
2013-01-27 16:55:00,53.7,36.5,30.06,NNW,340,5.0,8.0,52,0.00,,CLR,0.01,VWS V13.01,2013-01-28 00:55:00,
2013-01-27 17:01:00,53.3,36.6,30.06,NNW,339,0.0,8.0,53,0.00,,CLR,0.01,VWS V13.01,2013-01-28 01:01:00,
2013-01-27 17:07:00,52.9,35.8,30.06,NNW,340,5.0,8.0,52,0.00,,CLR,0.01,VWS V13.01,2013-01-28 01:07:00,
2013-01-27 17:13:00,52.5,35.9,30.06,NNW,340,5.0,8.0,53,0.00,,CLR,0.01,VWS V13.01,2013-01-28 01:13:00,
2013-01-27 17:19:00,52.2,36.5,30.06,NNW,340,2.0,8.0,55,0.00,,CLR,0.01,VWS V13.01,2013-01-28 01:19:00,
2013-01-27 17:25:00,51.8,36.6,30.06,NNW,340,5.0,5.0,56,0.00,,CLR,0.01,VWS V13.01,2013-01-28 01:25:00,
2013-01-27 17:31:00,51.3,36.6,30.06,NNW,340,0.0,5.0,57,0.00,,CLR,0.01,VWS V13.01,2013-01-28 01:31:00,
2013-01-27 17:37:00,50.9,36.7,30.06,NNW,340,0.0,0.0,58,0.00,,CLR,0.01,VWS V13.01,2013-01-28 01:37:00,
2013-01-27 17:43:00,50.5,36.3,30.06,NNW,340,0.0,0.0,58,0.00,,CLR,0.01,VWS V13.01,2013-01-28 01:43:00,
2013-01-27 17:49:00,50.0,36.2,30.06,NNW,340,0.0,0.0,59,0.00,,CLR,0.01,VWS V13.01,2013-01-28 01:49:00,
2013-01-27 17:55:00,49.5,35.8,30.06,NNW,340,0.0,0.0,59,0.00,,CLR,0.01,VWS V13.01,2013-01-28 01:55:00,
2013-01-27 18:01:00,49.0,35.7,30.06,NNW,340,0.0,0.0,60,0.00,,CLR,0.01,VWS V13.01,2013-01-28 02:01:00,
2013-01-27 18:07:00,48.6,35.8,30.07,NNW,340,0.0,0.0,61,0.00,,CLR,0.01,VWS V13.01,2013-01-28 02:07:00,
2013-01-27 18:13:00,48.1,35.7,30.07,NNW,340,0.0,0.0,62,0.00,,CLR,0.01,VWS V13.01,2013-01-28 02:13:00,
2013-01-27 18:19:00,47.7,35.7,30.07,NNW,340,0.0,0.0,63,0.00,,CLR,0.01,VWS V13.01,2013-01-28 02:19:00,
2013-01-27 18:25:00,47.2,35.7,30.06,NNW,340,0.0,0.0,64,0.00,,CLR,0.01,VWS V13.01,2013-01-28 02:25:00,
2013-01-27 18:31:00,46.7,36.0,30.06,NNW,340,0.0,0.0,66,0.00,,CLR,0.01,VWS V13.01,2013-01-28 02:31:00,
2013-01-27 18:38:00,46.3,36.0,30.06,NNW,340,0.0,0.0,67,0.00,,CLR,0.01,VWS V13.01,2013-01-28 02:38:00,
2013-01-27 18:44:00,45.9,36.0,30.06,NNW,340,0.0,0.0,68,0.00,,CLR,0.01,VWS V13.01,2013-01-28 02:44:00,
2013-01-27 18:49:00,45.5,35.6,30.06,NNW,340,0.0,0.0,68,0.00,,CLR,0.01,VWS V13.01,2013-01-28 02:49:00,
2013-01-27 18:56:00,45.1,35.5,30.06,NNW,340,0.0,0.0,69,0.00,,CLR,0.01,VWS V13.01,2013-01-28 02:56:00,
2013-01-27 19:02:00,44.9,36.4,30.06,NNW,340,0.0,0.0,72,0.00,,CLR,0.01,VWS V13.01,2013-01-28 03:02:00,
2013-01-27 19:08:00,44.5,36.7,30.06,NW,309,0.0,0.0,74,0.00,,CLR,0.01,VWS V13.01,2013-01-28 03:08:00,
2013-01-27 19:14:00,44.0,36.3,30.07,NW,310,0.0,0.0,74,0.00,,CLR,0.01,VWS V13.01,2013-01-28 03:14:00,
2013-01-27 19:19:00,43.7,36.3,30.07,NW,309,0.0,0.0,75,0.00,,CLR,0.01,VWS V13.01,2013-01-28 03:19:00,
2013-01-27 19:24:00,43.5,36.5,30.07,NW,309,0.0,0.0,76,0.00,,CLR,0.01,VWS V13.01,2013-01-28 03:24:00,
2013-01-27 19:30:00,43.3,36.6,30.07,WNW,302,0.0,0.0,77,0.00,,CLR,0.01,VWS V13.01,2013-01-28 03:30:00,
2013-01-27 19:36:00,43.1,36.1,30.07,WNW,302,0.0,0.0,76,0.00,,CLR,0.01,VWS V13.01,2013-01-28 03:36:00,
2013-01-27 19:43:00,42.9,36.2,30.08,WNW,302,0.0,0.0,77,0.00,,CLR,0.01,VWS V13.01,2013-01-28 03:43:00,
2013-01-27 19:49:00,42.8,36.4,30.08,WNW,302,0.0,0.0,78,0.00,,CLR,0.01,VWS V13.01,2013-01-28 03:49:00,
2013-01-27 19:55:00,42.6,36.2,30.07,WNW,302,0.0,0.0,78,0.00,,CLR,0.01,VWS V13.01,2013-01-28 03:55:00,
2013-01-27 20:01:00,42.4,36.4,30.08,WNW,302,0.0,0.0,79,0.00,,CLR,0.01,VWS V13.01,2013-01-28 04:01:00,
2013-01-27 20:07:00,42.2,36.2,30.08,WNW,302,0.0,0.0,79,0.00,,CLR,0.01,VWS V13.01,2013-01-28 04:07:00,
2013-01-27 20:13:00,42.0,36.0,30.08,WNW,302,0.0,0.0,79,0.00,,CLR,0.01,VWS V13.01,2013-01-28 04:13:00,
2013-01-27 20:19:00,41.8,35.8,30.07,WNW,302,0.0,0.0,79,0.00,,CLR,0.01,VWS V13.01,2013-01-28 04:19:00,
2013-01-27 20:25:00,41.6,35.6,30.07,WNW,302,0.0,0.0,79,0.00,,CLR,0.01,VWS V13.01,2013-01-28 04:25:00,
2013-01-27 20:31:00,41.5,35.5,30.07,WNW,302,0.0,0.0,79,0.00,,CLR,0.01,VWS V13.01,2013-01-28 04:31:00,
2013-01-27 20:37:00,41.3,35.3,30.07,WNW,302,0.0,0.0,79,0.00,,CLR,0.01,VWS V13.01,2013-01-28 04:37:00,
2013-01-27 20:43:00,41.1,35.1,30.07,WNW,302,0.0,0.0,79,0.00,,CLR,0.01,VWS V13.01,2013-01-28 04:43:00,
2013-01-27 20:49:00,40.8,35.1,30.07,WNW,302,0.0,0.0,80,0.00,,CLR,0.01,VWS V13.01,2013-01-28 04:49:00,
2013-01-27 20:55:00,40.7,35.0,30.07,WNW,302,0.0,0.0,80,0.00,,CLR,0.01,VWS V13.01,2013-01-28 04:55:00,
2013-01-27 21:02:00,40.6,35.2,30.07,WNW,302,0.0,0.0,81,0.00,,CLR,0.01,VWS V13.01,2013-01-28 05:02:00,
2013-01-27 21:03:00,40.7,35.3,30.07,WNW,302,0.0,0.0,81,0.00,,CLR,0.01,VWS V13.01,2013-01-28 05:03:00,
2013-01-27 21:09:00,40.7,35.3,30.07,WNW,302,0.0,0.0,81,0.00,,CLR,0.01,VWS V13.01,2013-01-28 05:09:00,
2013-01-27 21:14:00,40.8,35.4,30.07,WNW,302,0.0,0.0,81,0.00,,CLR,0.01,VWS V13.01,2013-01-28 05:14:00,
2013-01-27 21:19:00,40.9,35.8,30.07,WNW,302,0.0,0.0,82,0.00,,CLR,0.01,VWS V13.01,2013-01-28 05:19:00,
2013-01-27 21:20:00,41.0,35.9,30.07,WNW,302,0.0,0.0,82,0.00,,CLR,0.01,VWS V13.01,2013-01-28 05:20:00,
2013-01-27 21:26:00,40.9,35.8,30.07,WNW,302,0.0,0.0,82,0.00,,CLR,0.01,VWS V13.01,2013-01-28 05:26:00,
2013-01-27 21:32:00,40.9,35.8,30.07,WNW,302,0.0,0.0,82,0.00,,CLR,0.01,VWS V13.01,2013-01-28 05:32:00,
2013-01-27 21:38:00,40.8,36.0,30.07,WNW,302,0.0,0.0,83,0.00,,CLR,0.01,VWS V13.01,2013-01-28 05:38:00,
2013-01-27 21:44:00,40.8,35.7,30.08,WNW,302,0.0,0.0,82,0.00,,CLR,0.01,VWS V13.01,2013-01-28 05:44:00,
2013-01-27 21:49:00,40.7,36.0,30.08,WNW,302,0.0,0.0,83,0.00,,CLR,0.01,VWS V13.01,2013-01-28 05:49:00,
2013-01-27 21:55:00,40.6,35.8,30.08,WNW,302,0.0,0.0,83,0.00,,CLR,0.01,VWS V13.01,2013-01-28 05:55:00,
2013-01-27 22:00:00,40.4,35.7,30.07,North,0,0.0,0.0,83,0.00,,CLR,0.01,VWS V13.01,2013-01-28 06:00:00,
2013-01-27 22:15:00,40.6,35.8,30.07,WNW,292,0.0,4.0,83,0.00,,CLR,0.01,VWS V13.01,2013-01-28 06:15:00,
2013-01-27 22:30:00,40.9,35.8,30.07,WNW,292,0.0,0.0,82,0.00,,CLR,0.01,VWS V13.01,2013-01-28 06:30:00,
2013-01-27 22:45:00,40.9,35.8,30.08,WNW,292,0.0,0.0,82,0.00,,CLR,0.01,VWS V13.01,2013-01-28 06:45:00,
2013-01-27 23:00:00,40.9,35.8,30.08,NW,315,2.0,5.0,82,0.00,,CLR,0.01,VWS V13.01,2013-01-28 07:00:00,
2013-01-27 23:15:00,41.0,35.6,30.09,NW,315,4.0,6.0,81,0.00,,CLR,0.01,VWS V13.01,2013-01-28 07:15:00,
2013-01-27 23:30:00,40.9,35.2,30.09,NNW,338,4.0,7.0,80,0.00,,CLR,0.01,VWS V13.01,2013-01-28 07:30:00,
2013-01-27 23:45:00,40.8,35.1,30.09,NNW,338,1.0,5.0,80,0.00,,CLR,0.01,VWS V13.01,2013-01-28 07:45:00,